owner,sensor,date,latitude,longitude,vertical_datum,wind_speed,wind_to_direction,wind_speed_of_gust,qcFlag 
LUMCON,ioos:station:LUMCON:103:1,2009-02-01T00:00:00Z,30.1889,-90.1683,1.0,2.6,230.0,4.6,'11111222,11111222,11111222' 
LUMCON,ioos:station:LUMCON:103:1,2009-02-01T02:00:00Z,30.1889,-90.1683,1.0,3.1,190.0,4.6,'11111222,11111222,11111222' 
LUMCON,ioos:station:LUMCON:103:1,2009-02-01T03:00:00Z,30.1889,-90.1683,1.0,3.6,210.0,5.1,'11111222,11111222,11111222' 
LUMCON,ioos:station:LUMCON:103:1,2009-02-01T04:00:00Z,30.1889,-90.1683,1.0,3.1,210.0,5.1,'11111222,11111222,11111222' 
LUMCON,ioos:station:LUMCON:103:1,2009-02-01T05:00:00Z,30.1889,-90.1683,1.0,3.1,200.0,4.6,'11111222,11111222,11111222' 
LUMCON,ioos:station:LUMCON:103:1,2009-02-01T06:00:00Z,30.1889,-90.1683,1.0,2.6,200.0,4.1,'11111222,11111222,11111222' 
LUMCON,ioos:station:LUMCON:103:1,2009-02-01T07:00:00Z,30.1889,-90.1683,1.0,2.6,190.0,3.6,'11111222,11111222,11111222' 
LUMCON,ioos:station:LUMCON:103:1,2009-02-01T08:00:00Z,30.1889,-90.1683,1.0,2.1,190.0,2.6,'11111222,11111222,11111222' 
LUMCON,ioos:station:LUMCON:103:1,2009-02-01T09:00:00Z,30.1889,-90.1683,1.0,2.6,170.0,3.1,'11111222,11111222,11111222' 
LUMCON,ioos:station:LUMCON:103:1,2009-02-01T10:00:00Z,30.1889,-90.1683,1.0,2.6,160.0,4.1,'11111222,11111222,11111222' 
LUMCON,ioos:station:LUMCON:103:1,2009-02-01T11:00:00Z,30.1889,-90.1683,1.0,2.6,140.0,3.6,'11111222,11111222,11111222' 
LUMCON,ioos:station:LUMCON:103:1,2009-02-01T12:00:00Z,30.1889,-90.1683,1.0,2.1,130.0,3.1,'11111222,11111222,11111222' 
LUMCON,ioos:station:LUMCON:103:1,2009-02-01T13:00:00Z,30.1889,-90.1683,1.0,2.1,110.0,3.1,'11111222,11111222,11111222' 
LUMCON,ioos:station:LUMCON:103:1,2009-02-01T14:00:00Z,30.1889,-90.1683,1.0,3.1,110.0,4.6,'11111222,11111222,11111222' 
LUMCON,ioos:station:LUMCON:103:1,2009-02-01T15:00:00Z,30.1889,-90.1683,1.0,3.6,110.0,5.1,'11111222,11111222,11111222' 
LUMCON,ioos:station:LUMCON:103:1,2009-02-01T16:00:00Z,30.1889,-90.1683,1.0,4.1,90.0,7.2,'11111222,11111222,11111222' 
LUMCON,ioos:station:LUMCON:103:1,2009-02-01T17:00:00Z,30.1889,-90.1683,1.0,4.6,100.0,8.8,'11111222,11111222,11111222' 
LUMCON,ioos:station:LUMCON:103:1,2009-02-01T18:00:00Z,30.1889,-90.1683,1.0,4.6,100.0,7.2,'11111222,11111222,11111222' 
LUMCON,ioos:station:LUMCON:103:1,2009-02-01T19:00:00Z,30.1889,-90.1683,1.0,4.6,100.0,6.2,'11111222,11111222,11111222' 
LUMCON,ioos:station:LUMCON:103:1,2009-02-01T20:00:00Z,30.1889,-90.1683,1.0,4.1,100.0,6.2,'11111222,11111222,11111222' 
LUMCON,ioos:station:LUMCON:103:1,2009-02-01T21:00:00Z,30.1889,-90.1683,1.0,4.6,100.0,7.2,'11111222,11111222,11111222' 
LUMCON,ioos:station:LUMCON:103:1,2009-02-01T22:00:00Z,30.1889,-90.1683,1.0,4.6,100.0,7.2,'11111222,11111222,11111222' 
LUMCON,ioos:station:LUMCON:103:1,2009-02-01T23:00:00Z,30.1889,-90.1683,1.0,4.6,110.0,6.2,'11111222,11111222,11111222' 
LUMCON,ioos:station:LUMCON:103:1,2009-02-02T00:00:00Z,30.1889,-90.1683,1.0,4.1,110.0,6.2,'11111222,11111222,11111222' 
LUMCON,ioos:station:LUMCON:103:1,2009-02-02T01:00:00Z,30.1889,-90.1683,1.0,4.1,100.0,5.1,'11111222,11111222,11111222' 
LUMCON,ioos:station:LUMCON:103:1,2009-02-02T02:00:00Z,30.1889,-90.1683,1.0,4.1,110.0,5.1,'11111222,11111222,11111222' 
LUMCON,ioos:station:LUMCON:103:1,2009-02-02T03:00:00Z,30.1889,-90.1683,1.0,4.6,100.0,6.7,'11111222,11111222,11111222' 
LUMCON,ioos:station:LUMCON:103:1,2009-02-02T04:00:00Z,30.1889,-90.1683,1.0,5.7,100.0,8.2,'11111222,11111222,11111222' 
LUMCON,ioos:station:LUMCON:103:1,2009-02-02T05:00:00Z,30.1889,-90.1683,1.0,5.1,120.0,7.7,'11111222,11111222,11111222' 
LUMCON,ioos:station:LUMCON:103:1,2009-02-02T06:00:00Z,30.1889,-90.1683,1.0,4.6,60.0,8.2,'11111222,11111222,11111222' 
LUMCON,ioos:station:LUMCON:103:1,2009-02-02T07:00:00Z,30.1889,-90.1683,1.0,5.7,150.0,7.7,'11111222,11111222,11111222' 
LUMCON,ioos:station:LUMCON:103:1,2009-02-02T08:00:00Z,30.1889,-90.1683,1.0,4.6,120.0,7.7,'11111222,11111222,11111222' 
LUMCON,ioos:station:LUMCON:103:1,2009-02-02T09:00:00Z,30.1889,-90.1683,1.0,3.1,110.0,5.7,'11111222,11111222,11111222' 
LUMCON,ioos:station:LUMCON:103:1,2009-02-02T10:00:00Z,30.1889,-90.1683,1.0,2.1,200.0,3.1,'11111222,11111222,11111222' 
LUMCON,ioos:station:LUMCON:103:1,2009-02-02T11:00:00Z,30.1889,-90.1683,1.0,3.1,110.0,7.7,'11111222,11111222,11111222' 
LUMCON,ioos:station:LUMCON:103:1,2009-02-02T12:00:00Z,30.1889,-90.1683,1.0,2.1,80.0,3.6,'11111222,11111222,11111222' 
LUMCON,ioos:station:LUMCON:103:1,2009-02-02T13:00:00Z,30.1889,-90.1683,1.0,1.5,20.0,2.6,'11111222,11111222,11111222' 
LUMCON,ioos:station:LUMCON:103:1,2009-02-02T14:00:00Z,30.1889,-90.1683,1.0,5.7,310.0,9.8,'11111222,11111222,11111222' 
LUMCON,ioos:station:LUMCON:103:1,2009-02-02T15:00:00Z,30.1889,-90.1683,1.0,4.1,330.0,5.7,'11111222,11111222,11111222' 
LUMCON,ioos:station:LUMCON:103:1,2009-02-02T16:00:00Z,30.1889,-90.1683,1.0,4.1,350.0,6.7,'11111222,11111222,11111222' 
LUMCON,ioos:station:LUMCON:103:1,2009-02-02T17:00:00Z,30.1889,-90.1683,1.0,6.7,350.0,9.3,'11111222,11111222,11111222' 
LUMCON,ioos:station:LUMCON:103:1,2009-02-03T17:00:00Z,30.1889,-90.1683,1.0,2.6,170.0,4.1,'11111222,11111222,11111222' 
LUMCON,ioos:station:LUMCON:103:1,2009-02-03T21:00:00Z,30.1889,-90.1683,1.0,6.7,260.0,9.8,'11111222,11111222,11111222' 
LUMCON,ioos:station:LUMCON:103:1,2009-02-03T22:00:00Z,30.1889,-90.1683,1.0,6.7,270.0,8.8,'11111222,11111222,11111222' 
LUMCON,ioos:station:LUMCON:103:1,2009-02-03T23:00:00Z,30.1889,-90.1683,1.0,5.7,270.0,8.2,'11111222,11111222,11111222' 
LUMCON,ioos:station:LUMCON:103:1,2009-02-04T00:00:00Z,30.1889,-90.1683,1.0,4.6,270.0,6.2,'11111222,11111222,11111222' 
LUMCON,ioos:station:LUMCON:103:1,2009-02-04T01:00:00Z,30.1889,-90.1683,1.0,3.6,260.0,4.6,'11111222,11111222,11111222' 
LUMCON,ioos:station:LUMCON:103:1,2009-02-04T02:00:00Z,30.1889,-90.1683,1.0,3.6,250.0,4.6,'11111222,11111222,11111222' 
LUMCON,ioos:station:LUMCON:103:1,2009-02-04T03:00:00Z,30.1889,-90.1683,1.0,3.6,260.0,5.1,'11111222,11111222,11111222' 
LUMCON,ioos:station:LUMCON:103:1,2009-02-04T04:00:00Z,30.1889,-90.1683,1.0,3.1,310.0,4.6,'11111222,11111222,11111222' 
LUMCON,ioos:station:LUMCON:103:1,2009-02-04T05:00:00Z,30.1889,-90.1683,1.0,4.1,300.0,6.2,'11111222,11111222,11111222' 
LUMCON,ioos:station:LUMCON:103:1,2009-02-04T06:00:00Z,30.1889,-90.1683,1.0,3.6,330.0,6.2,'11111222,11111222,11111222' 
LUMCON,ioos:station:LUMCON:103:1,2009-02-04T07:00:00Z,30.1889,-90.1683,1.0,5.7,350.0,8.2,'11111222,11111222,11111222' 
LUMCON,ioos:station:LUMCON:103:1,2009-02-04T08:00:00Z,30.1889,-90.1683,1.0,4.6,10.0,7.7,'11111222,11111222,11111222' 
LUMCON,ioos:station:LUMCON:103:1,2009-02-04T09:00:00Z,30.1889,-90.1683,1.0,5.1,0.0,8.2,'11111222,11111222,11111222' 
LUMCON,ioos:station:LUMCON:103:1,2009-02-04T10:00:00Z,30.1889,-90.1683,1.0,5.1,350.0,7.7,'11111222,11111222,11111222' 
LUMCON,ioos:station:LUMCON:103:1,2009-02-05T20:00:00Z,30.1889,-90.1683,1.0,4.6,100.0,6.2,'11111222,11111222,11111222' 
LUMCON,ioos:station:LUMCON:103:1,2009-02-06T07:00:00Z,30.1889,-90.1683,1.0,3.1,120.0,5.7,'11111222,11111222,11111222' 
LUMCON,ioos:station:LUMCON:103:1,2009-02-06T09:00:00Z,30.1889,-90.1683,1.0,3.1,140.0,4.6,'11111222,11111222,11111222' 
LUMCON,ioos:station:LUMCON:103:1,2009-02-06T15:00:00Z,30.1889,-90.1683,1.0,3.6,130.0,5.1,'11111222,11111222,11111222' 
LUMCON,ioos:station:LUMCON:103:1,2009-02-06T16:00:00Z,30.1889,-90.1683,1.0,4.1,130.0,5.7,'11111222,11111222,11111222' 
LUMCON,ioos:station:LUMCON:103:1,2009-02-06T17:00:00Z,30.1889,-90.1683,1.0,4.6,120.0,6.2,'11111222,11111222,11111222' 
LUMCON,ioos:station:LUMCON:103:1,2009-02-06T18:00:00Z,30.1889,-90.1683,1.0,4.1,110.0,6.2,'11111222,11111222,11111222' 
LUMCON,ioos:station:LUMCON:103:1,2009-02-06T19:00:00Z,30.1889,-90.1683,1.0,4.6,110.0,6.7,'11111222,11111222,11111222' 
LUMCON,ioos:station:LUMCON:103:1,2009-02-06T20:00:00Z,30.1889,-90.1683,1.0,4.6,100.0,6.7,'11111222,11111222,11111222' 
LUMCON,ioos:station:LUMCON:103:1,2009-02-06T21:00:00Z,30.1889,-90.1683,1.0,5.1,100.0,7.2,'11111222,11111222,11111222' 
LUMCON,ioos:station:LUMCON:103:1,2009-02-06T22:00:00Z,30.1889,-90.1683,1.0,4.6,100.0,6.2,'11111222,11111222,11111222' 
LUMCON,ioos:station:LUMCON:103:1,2009-02-07T00:00:00Z,30.1889,-90.1683,1.0,4.1,120.0,6.2,'11111222,11111222,11111222' 
LUMCON,ioos:station:LUMCON:103:1,2009-02-07T01:00:00Z,30.1889,-90.1683,1.0,4.6,110.0,7.2,'11111222,11111222,11111222' 
LUMCON,ioos:station:LUMCON:103:1,2009-02-07T02:00:00Z,30.1889,-90.1683,1.0,4.1,110.0,5.7,'11111222,11111222,11111222' 
LUMCON,ioos:station:LUMCON:103:1,2009-02-07T04:00:00Z,30.1889,-90.1683,1.0,4.6,110.0,6.7,'11111222,11111222,11111222' 
LUMCON,ioos:station:LUMCON:103:1,2009-02-07T06:00:00Z,30.1889,-90.1683,1.0,3.6,100.0,5.1,'11111222,11111222,11111222' 
LUMCON,ioos:station:LUMCON:103:1,2009-02-07T07:00:00Z,30.1889,-90.1683,1.0,3.1,120.0,5.1,'11111222,11111222,11111222' 
LUMCON,ioos:station:LUMCON:103:1,2009-02-07T08:00:00Z,30.1889,-90.1683,1.0,4.6,130.0,5.7,'11111222,11111222,11111222' 
LUMCON,ioos:station:LUMCON:103:1,2009-02-07T09:00:00Z,30.1889,-90.1683,1.0,3.6,120.0,5.7,'11111222,11111222,11111222' 
LUMCON,ioos:station:LUMCON:103:1,2009-02-07T10:00:00Z,30.1889,-90.1683,1.0,3.6,120.0,5.7,'11111222,11111222,11111222' 
LUMCON,ioos:station:LUMCON:103:1,2009-02-07T11:00:00Z,30.1889,-90.1683,1.0,4.1,120.0,6.7,'11111222,11111222,11111222' 
LUMCON,ioos:station:LUMCON:103:1,2009-02-07T12:00:00Z,30.1889,-90.1683,1.0,3.6,120.0,6.7,'11111222,11111222,11111222' 
LUMCON,ioos:station:LUMCON:103:1,2009-02-07T14:00:00Z,30.1889,-90.1683,1.0,3.6,120.0,5.1,'11111222,11111222,11111222' 
LUMCON,ioos:station:LUMCON:103:1,2009-02-07T15:00:00Z,30.1889,-90.1683,1.0,3.6,120.0,5.1,'11111222,11111222,11111222' 
LUMCON,ioos:station:LUMCON:103:1,2009-02-07T16:00:00Z,30.1889,-90.1683,1.0,4.6,120.0,5.7,'11111222,11111222,11111222' 
LUMCON,ioos:station:LUMCON:103:1,2009-02-07T17:00:00Z,30.1889,-90.1683,1.0,3.6,120.0,5.7,'11111222,11111222,11111222' 
LUMCON,ioos:station:LUMCON:103:1,2009-02-07T18:00:00Z,30.1889,-90.1683,1.0,3.1,90.0,4.6,'11111222,11111222,11111222' 
LUMCON,ioos:station:LUMCON:103:1,2009-02-07T19:00:00Z,30.1889,-90.1683,1.0,6.2,90.0,8.2,'11111222,11111222,11111222' 
LUMCON,ioos:station:LUMCON:103:1,2009-02-07T20:00:00Z,30.1889,-90.1683,1.0,5.7,100.0,8.8,'11111222,11111222,11111222' 
LUMCON,ioos:station:LUMCON:103:1,2009-02-07T22:00:00Z,30.1889,-90.1683,1.0,3.6,100.0,5.1,'11111222,11111222,11111222' 
LUMCON,ioos:station:LUMCON:103:1,2009-02-07T23:00:00Z,30.1889,-90.1683,1.0,3.6,100.0,5.7,'11111222,11111222,11111222' 
LUMCON,ioos:station:LUMCON:103:1,2009-02-08T01:00:00Z,30.1889,-90.1683,1.0,4.1,120.0,5.1,'11111222,11111222,11111222' 
LUMCON,ioos:station:LUMCON:103:1,2009-02-08T02:00:00Z,30.1889,-90.1683,1.0,3.6,110.0,5.7,'11111222,11111222,11111222' 
LUMCON,ioos:station:LUMCON:103:1,2009-02-08T03:00:00Z,30.1889,-90.1683,1.0,4.6,120.0,6.2,'11111222,11111222,11111222' 
LUMCON,ioos:station:LUMCON:103:1,2009-02-08T06:00:00Z,30.1889,-90.1683,1.0,5.1,130.0,7.2,'11111222,11111222,11111222' 
LUMCON,ioos:station:LUMCON:103:1,2009-02-08T10:00:00Z,30.1889,-90.1683,1.0,3.6,70.0,5.7,'11111222,11111222,11111222' 
LUMCON,ioos:station:LUMCON:103:1,2009-02-08T13:00:00Z,30.1889,-90.1683,1.0,5.1,90.0,8.8,'11111222,11111222,11111222' 
LUMCON,ioos:station:LUMCON:103:1,2009-02-08T15:00:00Z,30.1889,-90.1683,1.0,5.1,90.0,9.8,'11111222,11111222,11111222' 
LUMCON,ioos:station:LUMCON:103:1,2009-02-08T16:00:00Z,30.1889,-90.1683,1.0,5.7,100.0,9.8,'11111222,11111222,11111222' 
LUMCON,ioos:station:LUMCON:103:1,2009-02-08T18:00:00Z,30.1889,-90.1683,1.0,5.7,110.0,9.3,'11111222,11111222,11111222' 
LUMCON,ioos:station:LUMCON:103:1,2009-02-08T19:00:00Z,30.1889,-90.1683,1.0,5.7,100.0,9.3,'11111222,11111222,11111222' 
LUMCON,ioos:station:LUMCON:103:1,2009-02-08T20:00:00Z,30.1889,-90.1683,1.0,5.7,100.0,9.8,'11111222,11111222,11111222' 
LUMCON,ioos:station:LUMCON:103:1,2009-02-08T23:00:00Z,30.1889,-90.1683,1.0,5.7,100.0,6.7,'11111222,11111222,11111222' 
LUMCON,ioos:station:LUMCON:103:1,2009-02-09T00:00:00Z,30.1889,-90.1683,1.0,5.7,90.0,7.7,'11111222,11111222,11111222' 
LUMCON,ioos:station:LUMCON:103:1,2009-02-09T01:00:00Z,30.1889,-90.1683,1.0,4.6,90.0,7.7,'11111222,11111222,11111222' 
LUMCON,ioos:station:LUMCON:103:1,2009-02-09T02:00:00Z,30.1889,-90.1683,1.0,5.7,110.0,7.7,'11111222,11111222,11111222' 
LUMCON,ioos:station:LUMCON:103:1,2009-02-09T03:00:00Z,30.1889,-90.1683,1.0,5.7,100.0,7.7,'11111222,11111222,11111222' 
LUMCON,ioos:station:LUMCON:103:1,2009-02-09T12:00:00Z,30.1889,-90.1683,1.0,4.6,100.0,7.7,'11111222,11111222,11111222' 
LUMCON,ioos:station:LUMCON:103:1,2009-02-09T13:00:00Z,30.1889,-90.1683,1.0,4.6,100.0,7.2,'11111222,11111222,11111222' 
LUMCON,ioos:station:LUMCON:103:1,2009-02-09T15:00:00Z,30.1889,-90.1683,1.0,5.7,100.0,7.2,'11111222,11111222,11111222' 
LUMCON,ioos:station:LUMCON:103:1,2009-02-09T16:00:00Z,30.1889,-90.1683,1.0,4.6,90.0,6.7,'11111222,11111222,11111222' 
LUMCON,ioos:station:LUMCON:103:1,2009-02-09T17:00:00Z,30.1889,-90.1683,1.0,5.1,100.0,6.7,'11111222,11111222,11111222' 
LUMCON,ioos:station:LUMCON:103:1,2009-02-09T18:00:00Z,30.1889,-90.1683,1.0,5.7,90.0,7.7,'11111222,11111222,11111222' 
LUMCON,ioos:station:LUMCON:103:1,2009-02-09T19:00:00Z,30.1889,-90.1683,1.0,6.2,100.0,8.2,'11111222,11111222,11111222' 
LUMCON,ioos:station:LUMCON:103:1,2009-02-09T20:00:00Z,30.1889,-90.1683,1.0,5.7,100.0,8.2,'11111222,11111222,11111222' 
LUMCON,ioos:station:LUMCON:103:1,2009-02-09T21:00:00Z,30.1889,-90.1683,1.0,5.7,100.0,7.7,'11111222,11111222,11111222' 
LUMCON,ioos:station:LUMCON:103:1,2009-02-09T22:00:00Z,30.1889,-90.1683,1.0,6.2,120.0,9.8,'11111222,11111222,11111222' 
LUMCON,ioos:station:LUMCON:103:1,2009-02-09T23:00:00Z,30.1889,-90.1683,1.0,4.6,80.0,8.2,'11111222,11111222,11111222' 
LUMCON,ioos:station:LUMCON:103:1,2009-02-10T11:00:00Z,30.1889,-90.1683,1.0,4.6,140.0,9.3,'11111222,11111222,11111222' 
LUMCON,ioos:station:LUMCON:103:1,2009-02-11T10:00:00Z,30.1889,-90.1683,1.0,5.1,150.0,7.2,'11111222,11111222,11111222' 
LUMCON,ioos:station:LUMCON:103:1,2009-02-11T11:00:00Z,30.1889,-90.1683,1.0,5.1,150.0,7.2,'11111222,11111222,11111222' 
LUMCON,ioos:station:LUMCON:103:1,2009-02-11T16:00:00Z,30.1889,-90.1683,1.0,6.2,280.0,8.8,'11111222,11111222,11111222' 
LUMCON,ioos:station:LUMCON:103:1,2009-02-11T18:00:00Z,30.1889,-90.1683,1.0,6.7,260.0,9.8,'11111222,11111222,11111222' 
LUMCON,ioos:station:LUMCON:103:1,2009-02-11T20:00:00Z,30.1889,-90.1683,1.0,7.2,250.0,9.8,'11111222,11111222,11111222' 
LUMCON,ioos:station:LUMCON:103:1,2009-02-11T22:00:00Z,30.1889,-90.1683,1.0,6.2,260.0,8.8,'11111222,11111222,11111222' 
LUMCON,ioos:station:LUMCON:103:1,2009-02-11T23:00:00Z,30.1889,-90.1683,1.0,5.1,270.0,7.2,'11111222,11111222,11111222' 
LUMCON,ioos:station:LUMCON:103:1,2009-02-12T01:00:00Z,30.1889,-90.1683,1.0,4.1,260.0,5.7,'11111222,11111222,11111222' 
LUMCON,ioos:station:LUMCON:103:1,2009-02-12T02:00:00Z,30.1889,-90.1683,1.0,3.6,260.0,4.6,'11111222,11111222,11111222' 
LUMCON,ioos:station:LUMCON:103:1,2009-02-12T03:00:00Z,30.1889,-90.1683,1.0,2.6,270.0,3.6,'11111222,11111222,11111222' 
LUMCON,ioos:station:LUMCON:103:1,2009-02-12T04:00:00Z,30.1889,-90.1683,1.0,2.6,260.0,3.1,'11111222,11111222,11111222' 
LUMCON,ioos:station:LUMCON:103:1,2009-02-12T05:00:00Z,30.1889,-90.1683,1.0,3.1,270.0,4.1,'11111222,11111222,11111222' 
LUMCON,ioos:station:LUMCON:103:1,2009-02-12T06:00:00Z,30.1889,-90.1683,1.0,3.6,290.0,4.6,'11111222,11111222,11111222' 
LUMCON,ioos:station:LUMCON:103:1,2009-02-12T07:00:00Z,30.1889,-90.1683,1.0,3.1,290.0,4.6,'11111222,11111222,11111222' 
LUMCON,ioos:station:LUMCON:103:1,2009-02-12T08:00:00Z,30.1889,-90.1683,1.0,2.1,280.0,3.1,'11111222,11111222,11111222' 
LUMCON,ioos:station:LUMCON:103:1,2009-02-12T09:00:00Z,30.1889,-90.1683,1.0,2.6,290.0,3.1,'11111222,11111222,11111222' 
LUMCON,ioos:station:LUMCON:103:1,2009-02-12T10:00:00Z,30.1889,-90.1683,1.0,3.1,320.0,3.6,'11111222,11111222,11111222' 
LUMCON,ioos:station:LUMCON:103:1,2009-02-12T11:00:00Z,30.1889,-90.1683,1.0,3.6,340.0,5.1,'11111222,11111222,11111222' 
LUMCON,ioos:station:LUMCON:103:1,2009-02-12T12:00:00Z,30.1889,-90.1683,1.0,3.1,360.0,4.1,'11111222,11144222,11111222' 
LUMCON,ioos:station:LUMCON:103:1,2009-02-12T13:00:00Z,30.1889,-90.1683,1.0,3.1,20.0,4.1,'11111222,11111222,11111222' 
LUMCON,ioos:station:LUMCON:103:1,2009-02-12T15:00:00Z,30.1889,-90.1683,1.0,5.1,40.0,6.7,'11111222,11111222,11111222' 
LUMCON,ioos:station:LUMCON:103:1,2009-02-12T17:00:00Z,30.1889,-90.1683,1.0,3.6,90.0,7.7,'11111222,11111222,11111222' 
LUMCON,ioos:station:LUMCON:103:1,2009-02-12T18:00:00Z,30.1889,-90.1683,1.0,4.1,100.0,7.7,'11111222,11111222,11111222' 
LUMCON,ioos:station:LUMCON:103:1,2009-02-12T19:00:00Z,30.1889,-90.1683,1.0,4.1,120.0,7.2,'11111222,11111222,11111222' 
LUMCON,ioos:station:LUMCON:103:1,2009-02-12T20:00:00Z,30.1889,-90.1683,1.0,4.1,110.0,7.2,'11111222,11111222,11111222' 
LUMCON,ioos:station:LUMCON:103:1,2009-02-12T21:00:00Z,30.1889,-90.1683,1.0,4.1,120.0,7.2,'11111222,11111222,11111222' 
LUMCON,ioos:station:LUMCON:103:1,2009-02-12T22:00:00Z,30.1889,-90.1683,1.0,4.1,120.0,6.7,'11111222,11111222,11111222' 
LUMCON,ioos:station:LUMCON:103:1,2009-02-12T23:00:00Z,30.1889,-90.1683,1.0,4.1,110.0,7.7,'11111222,11111222,11111222' 
LUMCON,ioos:station:LUMCON:103:1,2009-02-13T00:00:00Z,30.1889,-90.1683,1.0,3.6,100.0,5.7,'11111222,11111222,11111222' 
LUMCON,ioos:station:LUMCON:103:1,2009-02-13T01:00:00Z,30.1889,-90.1683,1.0,4.1,110.0,5.7,'11111222,11111222,11111222' 
LUMCON,ioos:station:LUMCON:103:1,2009-02-13T03:00:00Z,30.1889,-90.1683,1.0,3.1,110.0,4.6,'11111222,11111222,11111222' 
LUMCON,ioos:station:LUMCON:103:1,2009-02-13T04:00:00Z,30.1889,-90.1683,1.0,2.6,110.0,5.1,'11111222,11111222,11111222' 
LUMCON,ioos:station:LUMCON:103:1,2009-02-13T06:00:00Z,30.1889,-90.1683,1.0,3.1,80.0,4.6,'11111222,11111222,11111222' 
LUMCON,ioos:station:LUMCON:103:1,2009-02-13T07:00:00Z,30.1889,-90.1683,1.0,2.6,80.0,4.6,'11111222,11111222,11111222' 
LUMCON,ioos:station:LUMCON:103:1,2009-02-13T08:00:00Z,30.1889,-90.1683,1.0,3.1,80.0,4.1,'11111222,11111222,11111222' 
LUMCON,ioos:station:LUMCON:103:1,2009-02-13T09:00:00Z,30.1889,-90.1683,1.0,3.1,80.0,4.6,'11111222,11111222,11111222' 
LUMCON,ioos:station:LUMCON:103:1,2009-02-13T10:00:00Z,30.1889,-90.1683,1.0,3.6,90.0,5.1,'11111222,11111222,11111222' 
LUMCON,ioos:station:LUMCON:103:1,2009-02-13T13:00:00Z,30.1889,-90.1683,1.0,4.6,100.0,5.7,'11111222,11111222,11111222' 
LUMCON,ioos:station:LUMCON:103:1,2009-02-13T15:00:00Z,30.1889,-90.1683,1.0,5.7,120.0,7.7,'11111222,11111222,11111222' 
LUMCON,ioos:station:LUMCON:103:1,2009-02-13T21:00:00Z,30.1889,-90.1683,1.0,6.2,170.0,8.2,'11111222,11111222,11111222' 
LUMCON,ioos:station:LUMCON:103:1,2009-02-13T22:00:00Z,30.1889,-90.1683,1.0,4.6,190.0,7.2,'11111222,11111222,11111222' 
LUMCON,ioos:station:LUMCON:103:1,2009-02-13T23:00:00Z,30.1889,-90.1683,1.0,5.1,200.0,6.7,'11111222,11111222,11111222' 
LUMCON,ioos:station:LUMCON:103:1,2009-02-14T00:00:00Z,30.1889,-90.1683,1.0,4.6,200.0,6.2,'11111222,11111222,11111222' 
LUMCON,ioos:station:LUMCON:103:1,2009-02-14T01:00:00Z,30.1889,-90.1683,1.0,3.6,210.0,7.7,'11111222,11111222,11111222' 
LUMCON,ioos:station:LUMCON:103:1,2009-02-14T02:00:00Z,30.1889,-90.1683,1.0,3.1,220.0,6.7,'11111222,11111222,11111222' 
LUMCON,ioos:station:LUMCON:103:1,2009-02-14T03:00:00Z,30.1889,-90.1683,1.0,5.7,200.0,8.2,'11111222,11111222,11111222' 
LUMCON,ioos:station:LUMCON:103:1,2009-02-14T04:00:00Z,30.1889,-90.1683,1.0,3.6,230.0,8.2,'11111222,11111222,11111222' 
LUMCON,ioos:station:LUMCON:103:1,2009-02-14T05:00:00Z,30.1889,-90.1683,1.0,4.6,210.0,8.2,'11111222,11111222,11111222' 
LUMCON,ioos:station:LUMCON:103:1,2009-02-14T06:00:00Z,30.1889,-90.1683,1.0,5.1,210.0,9.8,'11111222,11111222,11111222' 
LUMCON,ioos:station:LUMCON:103:1,2009-02-14T07:00:00Z,30.1889,-90.1683,1.0,4.6,230.0,9.3,'11111222,11111222,11111222' 
LUMCON,ioos:station:LUMCON:103:1,2009-02-14T14:00:00Z,30.1889,-90.1683,1.0,2.6,200.0,4.6,'11111222,11111222,11111222' 
LUMCON,ioos:station:LUMCON:103:1,2009-02-14T20:00:00Z,30.1889,-90.1683,1.0,3.1,60.0,6.2,'11111222,11111222,11111222' 
LUMCON,ioos:station:LUMCON:103:1,2009-02-14T21:00:00Z,30.1889,-90.1683,1.0,4.1,60.0,6.7,'11111222,11111222,11111222' 
LUMCON,ioos:station:LUMCON:103:1,2009-02-14T22:00:00Z,30.1889,-90.1683,1.0,4.1,50.0,6.2,'11111222,11111222,11111222' 
LUMCON,ioos:station:LUMCON:103:1,2009-02-15T00:00:00Z,30.1889,-90.1683,1.0,3.1,40.0,5.1,'11111222,11111222,11111222' 
LUMCON,ioos:station:LUMCON:103:1,2009-02-15T10:00:00Z,30.1889,-90.1683,1.0,4.1,90.0,4.6,'11111222,11111222,11111222' 
LUMCON,ioos:station:LUMCON:103:1,2009-02-15T12:00:00Z,30.1889,-90.1683,1.0,5.1,30.0,5.7,'11111222,11111222,11111222' 
LUMCON,ioos:station:LUMCON:103:1,2009-02-15T15:00:00Z,30.1889,-90.1683,1.0,3.6,40.0,5.7,'11111222,11111222,11111222' 
LUMCON,ioos:station:LUMCON:103:1,2009-02-15T19:00:00Z,30.1889,-90.1683,1.0,4.1,10.0,6.7,'11111222,11111222,11111222' 
LUMCON,ioos:station:LUMCON:103:1,2009-02-15T21:00:00Z,30.1889,-90.1683,1.0,4.1,350.0,6.2,'11111222,11111222,11111222' 
LUMCON,ioos:station:LUMCON:103:1,2009-02-15T22:00:00Z,30.1889,-90.1683,1.0,5.1,350.0,6.7,'11111222,11111222,11111222' 
LUMCON,ioos:station:LUMCON:103:1,2009-02-15T23:00:00Z,30.1889,-90.1683,1.0,4.6,350.0,7.7,'11111222,11111222,11111222' 
LUMCON,ioos:station:LUMCON:103:1,2009-02-16T00:00:00Z,30.1889,-90.1683,1.0,4.1,350.0,5.7,'11111222,11111222,11111222' 
LUMCON,ioos:station:LUMCON:103:1,2009-02-16T02:00:00Z,30.1889,-90.1683,1.0,5.7,0.0,8.2,'11111222,11111222,11111222' 
LUMCON,ioos:station:LUMCON:103:1,2009-02-16T06:00:00Z,30.1889,-90.1683,1.0,6.2,10.0,8.2,'11111222,11111222,11111222' 
LUMCON,ioos:station:LUMCON:103:1,2009-02-16T07:00:00Z,30.1889,-90.1683,1.0,6.7,20.0,8.8,'11111222,11111222,11111222' 
LUMCON,ioos:station:LUMCON:103:1,2009-02-16T10:00:00Z,30.1889,-90.1683,1.0,5.7,20.0,9.3,'11111222,11111222,11111222' 
LUMCON,ioos:station:LUMCON:103:1,2009-02-16T11:00:00Z,30.1889,-90.1683,1.0,5.7,10.0,8.2,'11111222,11111222,11111222' 
LUMCON,ioos:station:LUMCON:103:1,2009-02-16T12:00:00Z,30.1889,-90.1683,1.0,6.7,10.0,8.8,'11111222,11111222,11111222' 
LUMCON,ioos:station:LUMCON:103:1,2009-02-16T13:00:00Z,30.1889,-90.1683,1.0,7.2,10.0,9.8,'11111222,11111222,11111222' 
LUMCON,ioos:station:LUMCON:103:1,2009-02-16T15:00:00Z,30.1889,-90.1683,1.0,7.2,20.0,9.8,'11111222,11111222,11111222' 
LUMCON,ioos:station:LUMCON:103:1,2009-02-16T16:00:00Z,30.1889,-90.1683,1.0,6.2,20.0,9.3,'11111222,11111222,11111222' 
LUMCON,ioos:station:LUMCON:103:1,2009-02-16T20:00:00Z,30.1889,-90.1683,1.0,4.6,40.0,8.2,'11111222,11111222,11111222' 
LUMCON,ioos:station:LUMCON:103:1,2009-02-17T06:00:00Z,30.1889,-90.1683,1.0,4.1,70.0,6.2,'11111222,11111222,11111222' 
LUMCON,ioos:station:LUMCON:103:1,2009-02-17T07:00:00Z,30.1889,-90.1683,1.0,5.1,90.0,6.7,'11111222,11111222,11111222' 
LUMCON,ioos:station:LUMCON:103:1,2009-02-17T09:00:00Z,30.1889,-90.1683,1.0,5.7,90.0,7.7,'11111222,11111222,11111222' 
LUMCON,ioos:station:LUMCON:103:1,2009-02-17T11:00:00Z,30.1889,-90.1683,1.0,4.6,100.0,6.7,'11111222,11111222,11111222' 
LUMCON,ioos:station:LUMCON:103:1,2009-02-17T12:00:00Z,30.1889,-90.1683,1.0,4.6,100.0,6.2,'11111222,11111222,11111222' 
LUMCON,ioos:station:LUMCON:103:1,2009-02-17T14:00:00Z,30.1889,-90.1683,1.0,4.1,60.0,6.2,'11111222,11111222,11111222' 
LUMCON,ioos:station:LUMCON:103:1,2009-02-19T20:00:00Z,30.1889,-90.1683,1.0,7.2,330.0,9.8,'11111222,11111222,11111222' 
LUMCON,ioos:station:LUMCON:103:1,2009-02-19T21:00:00Z,30.1889,-90.1683,1.0,7.7,330.0,9.8,'11111222,11111222,11111222' 
LUMCON,ioos:station:LUMCON:103:1,2009-02-19T22:00:00Z,30.1889,-90.1683,1.0,6.7,330.0,9.3,'11111222,11111222,11111222' 
LUMCON,ioos:station:LUMCON:103:1,2009-02-20T00:00:00Z,30.1889,-90.1683,1.0,6.2,330.0,9.3,'11111222,11111222,11111222' 
LUMCON,ioos:station:LUMCON:103:1,2009-02-20T03:00:00Z,30.1889,-90.1683,1.0,6.2,350.0,9.3,'11111222,11111222,11111222' 
LUMCON,ioos:station:LUMCON:103:1,2009-02-20T04:00:00Z,30.1889,-90.1683,1.0,5.7,340.0,9.8,'11111222,11111222,11111222' 
LUMCON,ioos:station:LUMCON:103:1,2009-02-20T05:00:00Z,30.1889,-90.1683,1.0,4.1,0.0,6.2,'11111222,11111222,11111222' 